| time (UTC) | temp C | wind direction | speed KPH | gust KPH | rain 1hr cm | rain 24hr cm | rain mn cm | humidity % | barometer mb |
| 20260504195041 | 20 | 295 | 4.8 | 25.7 | 0.00 | 0.00 | 0.00 | 36 | 1004.0 |
| 20260504194556 | 19 | 314 | 9.7 | 25.7 | 0.00 | 0.00 | 0.00 | 36 | 1004.2 |
| 20260504194043 | 19 | 292 | 4.8 | 20.9 | 0.00 | 0.00 | 0.00 | 37 | 1004.3 |
| 20260504193543 | 19 | 330 | 8.0 | 22.5 | 0.00 | 0.00 | 0.00 | 36 | 1004.2 |
| 20260504193059 | 19 | 296 | 6.4 | 24.1 | 0.00 | 0.00 | 0.00 | 37 | 1004.2 |
| 20260504192543 | 20 | 336 | 9.7 | 24.1 | 0.00 | 0.00 | 0.00 | 35 | 1004.2 |
| 20260504192042 | 20 | 6 | 11.3 | 24.1 | 0.00 | 0.00 | 0.00 | 35 | 1004.3 |
| 20260504191558 | 19 | 302 | 1.6 | 19.3 | 0.00 | 0.00 | 0.00 | 38 | 1004.1 |
| 20260504191042 | 18 | 273 | 4.8 | 19.3 | 0.00 | 0.00 | 0.00 | 37 | 1004.2 |
| 20260504190542 | 19 | 296 | 6.4 | 20.9 | 0.00 | 0.00 | 0.00 | 36 | 1004.1 |
| 20260504190107 | 20 | 285 | 8.0 | 20.9 | 0.00 | 0.00 | 0.00 | 35 | 1004.2 |
| 20260504185544 | 20 | 236 | 6.4 | 29.0 | 0.00 | 0.00 | 0.00 | 37 | 1004.3 |
| 20260504185045 | 20 | 242 | 4.8 | 29.0 | 0.00 | 0.00 | 0.00 | 36 | 1004.4 |
| 20260504184612 | 19 | 310 | 4.8 | 27.4 | 0.00 | 0.00 | 0.00 | 40 | 1004.5 |
| 20260504184047 | 19 | 279 | 6.4 | 20.9 | 0.00 | 0.00 | 0.00 | 41 | 1004.5 |
| 20260504183546 | 18 | 295 | 6.4 | 20.9 | 0.00 | 0.00 | 0.00 | 39 | 1004.4 |
| 20260504183056 | 18 | 316 | 8.0 | 30.6 | 0.00 | 0.00 | 0.00 | 38 | 1004.5 |
| 20260504182545 | 18 | 297 | 8.0 | 30.6 | 0.00 | 0.00 | 0.00 | 39 | 1004.5 |
| 20260504182046 | 18 | 281 | 12.9 | 33.8 | 0.00 | 0.00 | 0.00 | 39 | 1004.6 |
| 20260504181554 | 18 | 307 | 11.3 | 33.8 | 0.00 | 0.00 | 0.00 | 40 | 1004.7 |
| 20260504181045 | 18 | 314 | 6.4 | 20.9 | 0.00 | 0.00 | 0.00 | 41 | 1004.8 |
| 20260504180545 | 17 | 266 | 6.4 | 20.9 | 0.00 | 0.00 | 0.00 | 42 | 1004.8 |
| 20260504180059 | 17 | 350 | 4.8 | 19.3 | 0.00 | 0.00 | 0.00 | 44 | 1005.0 |
| 20260504175545 | 16 | 238 | 8.0 | 25.7 | 0.00 | 0.00 | 0.00 | 45 | 1005.1 |
| 20260504175042 | 15 | 277 | 9.7 | 25.7 | 0.00 | 0.00 | 0.00 | 45 | 1005.2 |
| 20260504174600 | 15 | 307 | 6.4 | 19.3 | 0.00 | 0.00 | 0.00 | 45 | 1005.1 |
| 20260504174045 | 15 | 307 | 9.7 | 30.6 | 0.00 | 0.00 | 0.00 | 46 | 1005.1 |
| 20260504173545 | 15 | 311 | 11.3 | 30.6 | 0.00 | 0.00 | 0.00 | 44 | 1005.2 |
| 20260504173103 | 15 | 274 | 12.9 | 30.6 | 0.00 | 0.00 | 0.00 | 45 | 1005.1 |
| 20260504172542 | 15 | 309 | 8.0 | 33.8 | 0.00 | 0.00 | 0.00 | 45 | 1005.1 |
| 20260504172045 | 16 | 281 | 14.5 | 33.8 | 0.00 | 0.00 | 0.00 | 44 | 1005.1 |
| 20260504171558 | 16 | 4 | 9.7 | 29.0 | 0.00 | 0.00 | 0.00 | 44 | 1005.0 |
| 20260504171046 | 16 | 279 | 12.9 | 30.6 | 0.00 | 0.00 | 0.00 | 44 | 1004.8 |
| 20260504170546 | 16 | 304 | 14.5 | 30.6 | 0.00 | 0.00 | 0.00 | 44 | 1005.0 |
| 20260504151048 | 16 | 180 | 6.4 | 22.5 | 0.00 | 0.00 | 0.00 | 42 | 1005.3 |
| 20260504150545 | 16 | 290 | 8.0 | 16.1 | 0.00 | 0.00 | 0.00 | 45 | 1005.2 |
| 20260504141045 | 15 | 276 | 6.4 | 16.1 | 0.00 | 0.00 | 0.00 | 43 | 1005.5 |
| 20260504140545 | 15 | 219 | 4.8 | 16.1 | 0.00 | 0.00 | 0.00 | 46 | 1005.5 |
| 20260504130542 | 12 | 0 | 0.0 | 4.8 | 0.00 | 0.00 | 0.00 | 57 | 1006.4 |
| 20260504110545 | 3 | 0 | 0.0 | 0.0 | 0.00 | 0.00 | 0.00 | 84 | 1007.4 |
| 20260504100545 | 3 | 0 | 0.0 | 1.6 | 0.00 | 0.00 | 0.00 | 80 | 1007.3 |
| 20260504081553 | 3 | 0 | 0.0 | 3.2 | 0.00 | 0.00 | 0.00 | 72 | 1007.3 |
| 20260504081043 | 3 | 134 | 1.6 | 3.2 | 0.00 | 0.00 | 0.00 | 71 | 1007.2 |
| 20260504080544 | 3 | 139 | 1.6 | 3.2 | 0.00 | 0.00 | 0.00 | 71 | 1007.3 |
| 20260504050541 | 0 | 143 | 1.6 | 3.2 | 0.00 | 0.00 | 0.00 | 79 | 1007.2 |
| 20260504045542 | 0 | 131 | 1.6 | 1.6 | 0.00 | 0.00 | 0.00 | 79 | 1007.3 |
| 20260504045043 | 0 | 116 | 0.0 | 1.6 | 0.00 | 0.00 | 0.00 | 78 | 1007.2 |
| 20260504044553 | 0 | 131 | 1.6 | 1.6 | 0.00 | 0.00 | 0.00 | 77 | 1007.2 |
| 20260504044044 | 0 | 129 | 0.0 | 3.2 | 0.00 | 0.00 | 0.00 | 77 | 1007.3 |
| 20260504043544 | 0 | 0 | 1.6 | 4.8 | 0.00 | 0.00 | 0.00 | 78 | 1007.3 |
| 20260504043052 | 1 | 0 | 0.0 | 4.8 | 0.00 | 0.00 | 0.00 | 77 | 1007.3 |
| 20260504042542 | 1 | 123 | 1.6 | 3.2 | 0.00 | 0.00 | 0.00 | 77 | 1007.3 |
| 20260504042045 | 1 | 150 | 0.0 | 1.6 | 0.00 | 0.00 | 0.00 | 76 | 1007.3 |
| 20260504041551 | 1 | 0 | 0.0 | 1.6 | 0.00 | 0.00 | 0.00 | 75 | 1007.3 |
| 20260504041040 | 1 | 0 | 0.0 | 3.2 | 0.00 | 0.00 | 0.00 | 75 | 1007.2 |
| 20260504040541 | 1 | 124 | 1.6 | 4.8 | 0.00 | 0.00 | 0.00 | 77 | 1007.2 |
| 20260504040104 | 1 | 129 | 1.6 | 4.8 | 0.00 | 0.00 | 0.00 | 77 | 1007.1 |
| 20260504035544 | 1 | 136 | 3.2 | 4.8 | 0.00 | 0.00 | 0.00 | 77 | 1007.1 |
| 20260504035042 | 1 | 124 | 3.2 | 4.8 | 0.00 | 0.00 | 0.00 | 77 | 1007.0 |
| 20260504034558 | 1 | 126 | 1.6 | 3.2 | 0.00 | 0.00 | 0.00 | 76 | 1007.0 |
| 20260504034043 | 1 | 131 | 0.0 | 1.6 | 0.00 | 0.00 | 0.00 | 76 | 1007.1 |
| 20260504033541 | 1 | 146 | 0.0 | 0.0 | 0.00 | 0.00 | 0.00 | 76 | 1007.1 |
| 20260504033126 | 1 | 0 | 0.0 | 1.6 | 0.00 | 0.00 | 0.00 | 74 | 1007.1 |
| 20260504032544 | 1 | 0 | 0.0 | 1.6 | 0.00 | 0.00 | 0.00 | 73 | 1007.1 |
| 20260504032043 | 2 | 0 | 0.0 | 0.0 | 0.00 | 0.00 | 0.00 | 72 | 1007.1 |
| 20260504031549 | 2 | 0 | 0.0 | 1.6 | 0.00 | 0.00 | 0.00 | 71 | 1007.0 |
| 20260504031041 | 2 | 0 | 0.0 | 1.6 | 0.00 | 0.00 | 0.00 | 70 | 1007.0 |
| 20260504030543 | 2 | 146 | 0.0 | 0.0 | 0.00 | 0.00 | 0.00 | 69 | 1006.9 |
| 20260504030054 | 2 | 146 | 0.0 | 0.0 | 0.00 | 0.00 | 0.00 | 68 | 1006.9 |
| 20260504025544 | 2 | 0 | 0.0 | 1.6 | 0.00 | 0.10 | 0.00 | 68 | 1006.9 |
| 20260504025041 | 2 | 0 | 0.0 | 1.6 | 0.00 | 0.10 | 0.00 | 68 | 1007.0 |
| 20260504024550 | 3 | 0 | 0.0 | 1.6 | 0.00 | 0.10 | 0.00 | 68 | 1007.1 |
| 20260504024044 | 3 | 0 | 0.0 | 0.0 | 0.00 | 0.10 | 0.00 | 66 | 1007.1 |
| 20260504023542 | 3 | 0 | 0.0 | 0.0 | 0.00 | 0.10 | 0.00 | 65 | 1007.1 |
| 20260504023100 | 4 | 0 | 0.0 | 0.0 | 0.00 | 0.10 | 0.00 | 63 | 1007.2 |
| 20260504022543 | 4 | 0 | 0.0 | 1.6 | 0.00 | 0.10 | 0.00 | 61 | 1007.2 |
| 20260504022043 | 5 | 0 | 0.0 | 4.8 | 0.00 | 0.10 | 0.00 | 59 | 1007.2 |
| 20260504021554 | 5 | 0 | 0.0 | 4.8 | 0.00 | 0.10 | 0.00 | 59 | 1007.2 |
| 20260504021044 | 5 | 314 | 0.0 | 4.8 | 0.00 | 0.10 | 0.00 | 59 | 1007.1 |
| 20260504020545 | 5 | 306 | 0.0 | 1.6 | 0.00 | 0.10 | 0.00 | 60 | 1007.2 |
| 20260504020058 | 5 | 0 | 0.0 | 1.6 | 0.00 | 0.10 | 0.00 | 59 | 1007.1 |
| 20260504015545 | 5 | 0 | 0.0 | 4.8 | 0.00 | 0.25 | 0.00 | 59 | 1007.1 |
| 20260504015044 | 5 | 305 | 0.0 | 4.8 | 0.00 | 0.25 | 0.00 | 58 | 1007.1 |
| 20260504014551 | 5 | 0 | 0.0 | 1.6 | 0.00 | 0.25 | 0.00 | 59 | 1007.0 |
| 20260504014045 | 5 | 0 | 0.0 | 1.6 | 0.00 | 0.25 | 0.00 | 59 | 1007.0 |
| 20260504013544 | 5 | 300 | 0.0 | 1.6 | 0.00 | 0.25 | 0.00 | 59 | 1007.0 |
| 20260504013104 | 5 | 0 | 0.0 | 1.6 | 0.00 | 0.25 | 0.00 | 59 | 1007.0 |
| 20260504012541 | 5 | 0 | 0.0 | 3.2 | 0.00 | 0.25 | 0.00 | 59 | 1007.0 |
| 20260504012042 | 5 | 0 | 0.0 | 3.2 | 0.00 | 0.25 | 0.00 | 58 | 1007.0 |
| 20260504011553 | 5 | 300 | 0.0 | 3.2 | 0.00 | 0.25 | 0.00 | 58 | 1006.9 |
| 20260504011043 | 5 | 304 | 0.0 | 3.2 | 0.00 | 0.25 | 0.00 | 58 | 1006.9 |
| 20260504010545 | 5 | 0 | 0.0 | 1.6 | 0.00 | 0.25 | 0.00 | 58 | 1006.9 |
| 20260504010059 | 5 | 288 | 0.0 | 1.6 | 0.00 | 0.25 | 0.00 | 58 | 1006.8 |
| 20260504005545 | 5 | 0 | 0.0 | 3.2 | 0.00 | 0.25 | 0.00 | 58 | 1006.7 |
| 20260504005042 | 5 | 290 | 0.0 | 3.2 | 0.00 | 0.25 | 0.00 | 57 | 1006.8 |
| 20260504004605 | 5 | 0 | 0.0 | 3.2 | 0.00 | 0.25 | 0.00 | 57 | 1006.7 |
| 20260504004043 | 6 | 300 | 0.0 | 3.2 | 0.00 | 0.25 | 0.00 | 57 | 1006.4 |
| 20260504003544 | 6 | 288 | 0.0 | 4.8 | 0.00 | 0.25 | 0.00 | 56 | 1006.4 |
| 20260504003051 | 6 | 301 | 1.6 | 6.4 | 0.00 | 0.25 | 0.00 | 56 | 1006.4 |
| 20260504002542 | 6 | 300 | 1.6 | 6.4 | 0.00 | 0.25 | 0.00 | 56 | 1006.3 |
| 20260504002045 | 6 | 314 | 1.6 | 6.4 | 0.00 | 0.25 | 0.00 | 56 | 1006.2 |
| 20260504001604 | 6 | 334 | 0.0 | 4.8 | 0.00 | 0.25 | 0.00 | 56 | 1006.2 |
| 20260504001042 | 6 | 284 | 1.6 | 4.8 | 0.00 | 0.25 | 0.00 | 55 | 1006.2 |
| 20260504000541 | 6 | 0 | 0.0 | 3.2 | 0.00 | 0.25 | 0.00 | 54 | 1006.1 |
| 20260504000057 | 7 | 302 | 1.6 | 6.4 | 0.00 | 0.25 | 0.00 | 52 | 1006.1 |
| 20260503235542 | 7 | 277 | 1.6 | 9.7 | 0.00 | 0.25 | 0.00 | 51 | 1006.1 |
| 20260503235044 | 7 | 305 | 3.2 | 9.7 | 0.00 | 0.25 | 0.00 | 50 | 1006.0 |
| 20260503234549 | 7 | 318 | 4.8 | 11.3 | 0.00 | 0.25 | 0.00 | 50 | 1005.9 |
| 20260503234042 | 7 | 303 | 4.8 | 12.9 | 0.00 | 0.25 | 0.00 | 49 | 1005.9 |
| 20260503233547 | 7 | 311 | 4.8 | 12.9 | 0.00 | 0.25 | 0.00 | 49 | 1005.9 |
| 20260503233050 | 7 | 293 | 6.4 | 14.5 | 0.00 | 0.25 | 0.00 | 48 | 1005.8 |
| 20260503232545 | 7 | 320 | 8.0 | 16.1 | 0.00 | 0.25 | 0.00 | 48 | 1005.8 |
| 20260503232044 | 7 | 289 | 4.8 | 16.1 | 0.00 | 0.25 | 0.00 | 48 | 1005.8 |
| 20260503231556 | 8 | 314 | 8.0 | 17.7 | 0.00 | 0.25 | 0.00 | 47 | 1005.7 |
| 20260503231042 | 8 | 17 | 6.4 | 20.9 | 0.00 | 0.25 | 0.00 | 47 | 1005.8 |
| 20260503230542 | 8 | 304 | 9.7 | 20.9 | 0.00 | 0.25 | 0.00 | 46 | 1005.8 |
| 20260503230057 | 8 | 311 | 12.9 | 20.9 | 0.00 | 0.25 | 0.00 | 45 | 1005.8 |
| 20260503225541 | 8 | 293 | 9.7 | 22.5 | 0.00 | 0.28 | 0.00 | 45 | 1005.7 |
| 20260503225045 | 8 | 347 | 8.0 | 22.5 | 0.00 | 0.28 | 0.00 | 46 | 1005.7 |
| 20260503224548 | 8 | 335 | 12.9 | 22.5 | 0.00 | 0.28 | 0.00 | 44 | 1005.6 |
| 20260503224042 | 9 | 302 | 8.0 | 29.0 | 0.00 | 0.28 | 0.00 | 44 | 1005.5 |
| 20260503223544 | 9 | 343 | 12.9 | 29.0 | 0.00 | 0.28 | 0.00 | 44 | 1005.6 |
| 20260503223058 | 9 | 333 | 14.5 | 37.0 | 0.00 | 0.28 | 0.00 | 44 | 1005.5 |
| 20260503222541 | 9 | 317 | 11.3 | 37.0 | 0.00 | 0.28 | 0.00 | 43 | 1005.5 |
| 20260503222041 | 10 | 314 | 11.3 | 37.0 | 0.00 | 0.28 | 0.00 | 43 | 1005.4 |
| 20260503221553 | 9 | 311 | 6.4 | 24.1 | 0.00 | 0.28 | 0.00 | 45 | 1005.4 |
| 20260503221042 | 9 | 316 | 9.7 | 24.1 | 0.00 | 0.28 | 0.00 | 44 | 1005.3 |
| 20260503220542 | 9 | 283 | 8.0 | 17.7 | 0.00 | 0.28 | 0.00 | 45 | 1005.3 |
| 20260503220056 | 8 | 314 | 6.4 | 20.9 | 0.00 | 0.28 | 0.00 | 47 | 1005.3 |
| 20260503215543 | 8 | 307 | 11.3 | 24.1 | 0.00 | 0.28 | 0.00 | 46 | 1005.3 |
| 20260503215041 | 8 | 327 | 11.3 | 24.1 | 0.00 | 0.28 | 0.00 | 46 | 1005.2 |
| 20260503214551 | 8 | 337 | 11.3 | 22.5 | 0.00 | 0.28 | 0.00 | 46 | 1005.2 |
| 20260503214045 | 8 | 331 | 11.3 | 22.5 | 0.00 | 0.28 | 0.00 | 45 | 1005.2 |
| 20260503213544 | 8 | 22 | 8.0 | 20.9 | 0.00 | 0.28 | 0.00 | 46 | 1005.2 |
| 20260503213104 | 8 | 294 | 9.7 | 32.2 | 0.00 | 0.28 | 0.00 | 45 | 1005.3 |
| 20260503212542 | 8 | 334 | 11.3 | 32.2 | 0.00 | 0.28 | 0.00 | 45 | 1005.3 |
| 20260503212042 | 8 | 299 | 12.9 | 27.4 | 0.00 | 0.28 | 0.00 | 46 | 1005.2 |
| 20260503211556 | 8 | 312 | 11.3 | 27.4 | 0.00 | 0.28 | 0.00 | 46 | 1005.2 |
| 20260503211048 | 8 | 23 | 8.0 | 24.1 | 0.00 | 0.28 | 0.00 | 46 | 1005.2 |
| 20260503210545 | 8 | 317 | 12.9 | 24.1 | 0.00 | 0.28 | 0.00 | 45 | 1005.1 |
| 20260503210113 | 9 | 275 | 12.9 | 24.1 | 0.00 | 0.28 | 0.00 | 45 | 1005.0 |
| 20260503205545 | 8 | 354 | 11.3 | 35.4 | 0.00 | 0.51 | 0.00 | 46 | 1005.1 |
| 20260503205043 | 8 | 281 | 14.5 | 35.4 | 0.00 | 0.51 | 0.00 | 46 | 1005.1 |
| 20260503204555 | 8 | 319 | 12.9 | 27.4 | 0.00 | 0.51 | 0.00 | 46 | 1005.0 |
| 20260503204042 | 8 | 340 | 14.5 | 30.6 | 0.00 | 0.51 | 0.00 | 48 | 1005.1 |
| 20260503203543 | 8 | 335 | 12.9 | 30.6 | 0.00 | 0.51 | 0.00 | 47 | 1005.1 |
| 20260503203105 | 8 | 300 | 14.5 | 30.6 | 0.00 | 0.51 | 0.00 | 46 | 1005.1 |
| 20260503202542 | 8 | 290 | 11.3 | 30.6 | 0.00 | 0.51 | 0.00 | 48 | 1005.1 |
| 20260503202041 | 8 | 48 | 16.1 | 30.6 | 0.00 | 0.51 | 0.00 | 47 | 1005.0 |
| 20260503201548 | 8 | 347 | 12.9 | 30.6 | 0.00 | 0.51 | 0.00 | 47 | 1005.0 |
| 20260503201042 | 8 | 15 | 11.3 | 30.6 | 0.00 | 0.51 | 0.00 | 47 | 1004.9 |
| 20260503200542 | 8 | 299 | 16.1 | 29.0 | 0.00 | 0.51 | 0.00 | 45 | 1004.8 |
| 20260503200100 | 8 | 335 | 11.3 | 24.1 | 0.00 | 0.51 | 0.00 | 44 | 1004.7 |
| 20260503195541 | 8 | 304 | 12.9 | 32.2 | 0.00 | 0.51 | 0.00 | 44 | 1004.7 |